Corpus Christi, TX

8:45 AM CST on January 22, 2018 (GMT -0600)
Corpus Christi International

Weather History for KCRP - May, 2014

Change the Weather History Date:

Tuesday, May 6, 2014

  Actual Average Record
Temperature  
Mean Temperature 76 °F 77 °F  
Max Temperature 84 °F 85 °F 93 °F (2009)
Min Temperature 67 °F 68 °F 52 °F (1944)
Degree Days  
Heating Degree Days 0 0  
Month to date heating degree days 0 0  
Since 1 July heating degree days 1145 898  
Cooling Degree Days 11 12  
Month to date cooling degree days 46 67  
Year to date cooling degree days 492 495  
Growing Degree Days 25 (Base 50)    
Moisture  
Dew Point 67 °F    
Average Humidity 76    
Maximum Humidity 90    
Minimum Humidity 62    
Precipitation  
Precipitation 0.00 in 0.09 in 4.11 in (1912)
Month to date precipitation 0.08 0.51  
Year to date precipitation 3.14 7.71  
Snow  
Snow 0.00 in - - ()
Month to date snowfall 0.0  
Since 1 July snowfall T  
Snow Depth 0.00 in    
Sea Level Pressure  
Sea Level Pressure 29.82 in    
Wind  
Wind Speed 19 mph (SSE)    
Max Wind Speed 33 mph    
Max Gust Speed 39 mph    
Visibility 10 miles    
Events      
T = Trace of Precipitation, MM = Missing Value Source: NWS Daily Summary

Daily Weather History Graph

Daily Weather History Graph

Search for Another Location

Airport or City:

Trip Planner

Search our weather history database for the weather conditions in past years. The results will help you decide how hot, cold, wet, or windy it might be!

Date:

Astronomy

May. 06, 2014 Rise Set
Actual Time 6:46 AM CDT 8:07 PM CDT
Civil Twilight 6:21 AM CDT 8:32 PM CDT
Nautical Twilight 5:51 AM CDT 9:01 PM CDT
Astronomical Twilight 5:21 AM CDT 9:32 PM CDT
Moon 12:57 PM CDT (5/6) 1:31 AM CDT (5/6)
Length of Visible Light 14h 10m
Length of Day
13h 20m
Waxing Crescent, 46% of the Moon is Illuminated
May 6
Waxing Crescent
May 6
First Quarter
May 14
Full
May 21
Last Quarter
May 28
New

Hourly Weather History & Observations

Time (CDT) Temp. Heat Index Dew Point Humidity Pressure Visibility Wind Dir Wind Speed Gust Speed Precip Events Conditions
12:51 AM 69.1 °F - 64.0 °F 84% 29.89 in 10.0 mi SSE 11.5 mph - N/A   Partly Cloudy
1:51 AM 68.0 °F - 64.0 °F 87% 29.87 in 10.0 mi SSE 10.4 mph - N/A   Partly Cloudy
2:51 AM 68.0 °F - 64.9 °F 90% 29.84 in 10.0 mi SSE 8.1 mph - N/A   Partly Cloudy
6:51 AM 70.0 °F - 66.0 °F 87% 29.83 in 10.0 mi SSE 12.7 mph - N/A   Mostly Cloudy
7:51 AM 72.0 °F - 66.0 °F 81% 29.84 in 10.0 mi SSE 16.1 mph - N/A   Mostly Cloudy
9:51 AM 75.9 °F - 66.0 °F 71% 29.86 in 10.0 mi SSE 17.3 mph - N/A   Overcast
10:51 AM 77.0 °F - 66.9 °F 71% 29.86 in 10.0 mi SSE 19.6 mph 25.3 mph N/A   Overcast
11:51 AM 81.0 °F 83.3 °F 66.9 °F 62% 29.86 in 10.0 mi SSE 18.4 mph 27.6 mph N/A   Mostly Cloudy
12:51 PM 81.0 °F 83.3 °F 66.9 °F 62% 29.85 in 10.0 mi SSE 23.0 mph 29.9 mph N/A   Mostly Cloudy
1:51 PM 82.9 °F 85.8 °F 68.0 °F 60% 29.82 in 10.0 mi SSE 23.0 mph - N/A   Mostly Cloudy
2:51 PM 82.9 °F 85.8 °F 68.0 °F 60% 29.81 in 10.0 mi SSE 25.3 mph - 0.00 in   Mostly Cloudy
3:51 PM 82.9 °F 85.8 °F 68.0 °F 60% 29.78 in 10.0 mi SE 26.5 mph 35.7 mph N/A   Mostly Cloudy
4:51 PM 82.0 °F 84.9 °F 68.0 °F 62% 29.76 in 10.0 mi SE 27.6 mph 35.7 mph N/A   Mostly Cloudy
5:32 PM 81.0 °F 83.8 °F 68.0 °F 65% 29.75 in 10.0 mi SSE 28.8 mph 36.8 mph N/A   Mostly Cloudy
5:51 PM 80.1 °F 82.7 °F 68.0 °F 67% 29.75 in 10.0 mi SE 27.6 mph 34.5 mph N/A   Mostly Cloudy
6:51 PM 79.0 °F - 68.0 °F 69% 29.76 in 10.0 mi SSE 27.6 mph 34.5 mph N/A   Mostly Cloudy
7:42 PM 75.9 °F - 68.0 °F 76% 29.78 in 10.0 mi SE 21.9 mph 31.1 mph N/A   Overcast
7:51 PM 75.9 °F - 68.0 °F 76% 29.78 in 10.0 mi SSE 23.0 mph 31.1 mph N/A   Overcast
8:51 PM 75.0 °F - 68.0 °F 79% 29.80 in 10.0 mi SE 20.7 mph - N/A   Overcast
9:13 PM 75.0 °F - 68.0 °F 79% 29.80 in 10.0 mi SE 21.9 mph - N/A   Overcast
9:51 PM 75.0 °F - 68.0 °F 79% 29.81 in 10.0 mi SE 24.2 mph - N/A   Overcast
10:51 PM 73.9 °F - 68.0 °F 82% 29.84 in 10.0 mi SE 16.1 mph - N/A   Overcast
11:25 PM 73.9 °F - 68.0 °F 82% 29.84 in 10.0 mi SE 18.4 mph - N/A   Overcast
11:41 PM 73.9 °F - 68.0 °F 82% 29.84 in 10.0 mi SE 18.4 mph - N/A   Overcast
11:51 PM 73.4 °F - 68.0 °F 83% 29.84 in 10.0 mi SE 20.7 mph - N/A   Overcast